Home   Weather   Tsingtao   Past weeks

Flag for China Past Weather in Tsingtao, Shandong, China — Yesterday and Last 2 Weeks

Now
72 °F

Fog.


Feels Like: 69 °F
Forecast: 60 / 67 °F
Wind: No wind

Location: Qingdao Airport

Current Time: Sep 27, 2016 at 6:40:40 PM

Latest Report: Sep 27, 2016 at 6:00 PM


Visibility: 2 mi

Pressure: 30.01 "Hg

Humidity: 88%

Dew Point: 68 °F

Location of TsingtaoLocation

Past Weather in Tsingtao — Graph

°F

Tsingtao Temperature Yesterday

Maximum temperature yesterday: 82 °F (at 10:00 AM)
Minimum temperature yesterday: 72 °F (at 12:00 AM)
Average temperature yesterday: 76 °F

High & Low Weather Summary for the Past Weeks

 TemperatureHumidityPressure
High86 °F (Sep 14, 1:00 PM)100% (Sep 22, 6:00 AM)30.15 "Hg (Sep 22, 6:00 AM)
Low54 °F (Sep 20, 4:00 AM)23% (Sep 19, 3:00 PM)29.86 "Hg (Sep 16, 3:00 PM)
Average73 °F68%30.00 "Hg
* Reported Sep 12 5:00 PM — Sep 27 5:00 PM, Tsingtao, Weather by CustomWeather, © 2016

Note: Actual official high and low records may vary slightly from our data, if they occured in-between our weather recording intervals... More about our weather records

Advertising

Tsingtao Weather History for the Previous 24 Hours

Scroll right to see more
 ConditionsComfort  
Time TempWeatherWind HumidityBarometerVisibility
5:00 PM
Tue, Sep 27
72 °FFog.1 mph88%30.01 "Hg3 mi
4:00 PM72 °FClear.1 mph88%30.01 "Hg4 mi
3:00 PM72 °FLight rain. Overcast.1 mph88%29.98 "Hg4 mi
2:00 PM75 °FLight rain. Partly sunny.3 mph74%29.98 "Hg5 mi
1:00 PM77 °FLight rain. Clear.1 mph65%29.98 "HgN/A
12:00 PM77 °FSunny.1 mph65%30.01 "Hg10 mi
11:00 AM75 °FSunny.1 mph69%30.01 "Hg10 mi
10:00 AM73 °FPassing clouds.6 mph74%30.01 "HgN/A
9:00 AM72 °FPassing clouds.3 mph73%30.01 "HgN/A
8:00 AM70 °FPassing clouds.6 mph88%30.01 "HgN/A
7:00 AM68 °FPassing clouds.3 mph88%29.98 "HgN/A
6:00 AM66 °FSunny.1 mph94%29.98 "Hg10 mi
5:00 AM66 °FClear.3 mph88%29.95 "Hg10 mi
4:00 AM66 °FPassing clouds.3 mph83%29.95 "HgN/A
3:00 AM66 °FLight rain. Clear.3 mph94%29.95 "HgN/A
2:00 AM70 °FLight rain. Clear.3 mph88%29.98 "HgN/A
1:00 AM70 °FLight rain. Passing clouds.1 mph78%29.98 "HgN/A
12:00 AM70 °FLight rain. Fog.1 mph83%29.98 "Hg2 mi
11:00 PM
Mon, Sep 26
72 °FRain. Fog.6 mph94%29.98 "Hg3 mi
10:00 PM72 °FLight rain. Clear.3 mph88%29.98 "HgN/A
9:00 PM73 °FClear.6 mph78%29.95 "Hg10 mi
8:00 PM73 °FClear.10 mph78%29.95 "Hg10 mi
7:00 PM75 °FClear.13 mph69%29.92 "Hg10 mi
6:00 PM75 °FClear.8 mph69%29.92 "Hg10 mi
Weather by CustomWeather, © 2016

See weather overviewHow to use our weather pages